FW8793 Weather Reports


time (UTC)temp
C
wind
direction
speed
KPH
gust
KPH
rain 1hr
cm
rain 24hr
cm
rain mn
cm
humidity
%
barometer
mb
20260505125000 8 207 1.6 8.0 0.00 0.20 0.00 76 1006.0
20260505124001 8 231 3.2 9.7 0.00 0.20 0.00 78 1005.8
20260505122959 8 211 1.6 4.8 0.00 0.20 0.00 80 1005.3
20260505122000 8 217 1.6 8.0 0.00 0.20 0.00 81 1005.2
20260505120959 7 257 1.6 8.0 0.00 0.20 0.00 83 1005.0
20260505120005 7 218 3.2 8.0 0.00 0.20 0.00 82 1005.0
20260505114959 7 277 1.6 8.0 0.00 0.20 0.00 83 1004.5
20260505114000 7 253 1.6 8.0 0.00 0.20 0.00 83 1004.7
20260505112959 7 210 1.6 4.8 0.00 0.20 0.00 82 1004.5
20260505112000 7 219 1.6 3.2 0.00 0.20 0.00 82 1004.2
20260505110959 7 223 1.6 6.4 0.00 0.20 0.00 83 1003.9
20260505102000 7 214 1.6 6.4 0.00 0.20 0.00 80 1002.9
20260505100959 8 210 1.6 4.8 0.00 0.20 0.00 78 1002.9
20260505100004 8 207 3.2 9.7 0.00 0.20 0.00 76 1002.8
20260505095000 8 241 1.6 4.8 0.00 0.20 0.00 74 1002.9
20260505094000 8 223 3.2 4.8 0.00 0.20 0.00 73 1002.2
20260505092959 9 227 1.6 4.8 0.00 0.20 0.00 72 1001.9
20260505092001 9 236 1.6 6.4 0.00 0.20 0.00 72 1001.8
20260505090958 9 238 1.6 6.4 0.00 0.20 0.00 72 1001.8
20260505084000 10 206 1.6 4.8 0.00 0.20 0.00 70 1001.3
20260505082001 10 229 1.6 3.2 0.00 0.20 0.00 72 1001.2
20260505080005 9 228 1.6 4.8 0.00 0.20 0.00 76 1000.9
20260505074958 9 202 0.0 0.0 0.00 0.20 0.00 78 1000.9
20260505074000 10 228 1.6 4.8 0.00 0.20 0.00 80 1000.6
20260505072002 10 223 3.2 8.0 0.00 0.20 0.00 82 1000.8
20260505070959 10 232 3.2 4.8 0.00 0.20 0.00 85 1000.7
20260505070003 10 238 3.2 9.7 0.00 0.20 0.00 86 1000.5
20260505064958 10 210 1.6 4.8 0.00 0.20 0.00 86 1000.4
20260505064000 10 210 1.6 4.8 0.00 0.20 0.00 86 1000.3
20260505063000 11 216 3.2 8.0 0.00 0.20 0.00 86 1000.1
20260505061959 11 242 1.6 6.4 0.00 0.20 0.00 86 1000.1
20260505061001 11 202 1.6 6.4 0.00 0.20 0.00 86 1000.1
20260505060001 11 216 1.6 6.4 0.00 0.20 0.00 85 1000.1
20260505055000 11 240 3.2 8.0 0.00 0.20 0.00 84 1000.0
20260505053959 12 232 3.2 11.3 0.00 0.20 0.00 84 999.7
20260505051959 12 225 3.2 9.7 0.00 0.20 0.00 83 999.3
20260505051000 13 169 4.8 9.7 0.00 0.20 0.00 82 999.5
20260505040005 16 193 3.2 12.9 0.00 0.20 0.00 77 998.8
20260505033958 16 225 3.2 8.0 0.00 0.20 0.20 74 998.5
20260505033000 16 208 4.8 12.9 0.00 0.20 0.20 74 998.3
20260505031958 16 227 4.8 14.5 0.00 0.20 0.20 74 998.0
20260505030002 15 234 3.2 11.3 0.00 0.20 0.20 76 997.3
20260505024959 15 230 3.2 8.0 0.03 0.20 0.20 77 997.2
20260505023959 15 230 3.2 19.3 0.20 0.20 0.20 78 997.1
20260505023000 15 222 4.8 12.9 0.20 0.20 0.20 79 997.2
20260505022000 15 215 6.4 14.5 0.20 0.20 0.20 80 997.4
20260505021000 15 224 6.4 20.9 0.20 0.20 0.20 80 997.4
20260505020001 16 227 6.4 17.7 0.20 0.20 0.20 78 997.5
20260505014959 19 271 8.0 16.1 0.18 0.18 0.18 72 997.9
20260505012958 20 248 9.7 22.5 0.00 0.00 0.00 64 996.7
20260505011959 20 173 6.4 14.5 0.00 0.00 0.00 63 996.6
20260505010959 20 258 6.4 20.9 0.00 0.00 0.00 62 996.5
20260505010002 21 228 6.4 19.3 0.00 0.00 0.00 61 996.4
20260505003959 21 225 8.0 22.5 0.00 0.00 0.00 57 996.4
20260505003000 21 264 4.8 16.1 0.00 0.00 0.00 56 996.3
20260505001958 21 248 6.4 20.9 0.00 0.00 0.00 52 996.1
20260505001000 22 219 6.4 16.1 0.00 0.00 0.00 48 996.2
20260505000003 22 215 4.8 14.5 0.00 0.00 0.00 45 996.2
20260504235002 22 229 3.2 12.9 0.00 0.00 0.00 45 996.0
20260504234000 22 201 3.2 9.7 0.00 0.00 0.00 45 996.2
20260504233002 22 244 3.2 8.0 0.00 0.00 0.00 46 996.3
20260504232000 22 189 4.8 14.5 0.00 0.00 0.00 44 996.5
20260504231000 22 205 4.8 16.1 0.00 0.00 0.00 45 996.7
20260504230002 22 231 4.8 19.3 0.00 0.00 0.00 45 996.8
20260504224959 22 200 6.4 17.7 0.00 0.00 0.00 44 997.1
20260504224001 22 196 4.8 12.9 0.00 0.00 0.00 47 997.2
20260504222959 22 236 4.8 14.5 0.00 0.00 0.00 45 997.4
20260504222001 22 257 6.4 17.7 0.00 0.00 0.00 45 997.6
20260504221000 22 227 4.8 11.3 0.00 0.00 0.00 45 997.7
20260504220005 23 238 4.8 16.1 0.00 0.00 0.00 46 997.8
20260504214959 23 221 6.4 22.5 0.00 0.00 0.00 43 997.8
20260504214000 23 231 6.4 12.9 0.00 0.00 0.00 46 997.9
20260504212959 23 250 8.0 24.1 0.00 0.00 0.00 45 998.0
20260504210004 23 220 11.3 27.4 0.00 0.00 0.00 44 998.4
20260504205001 23 248 9.7 22.5 0.00 0.00 0.00 41 998.7
20260504203002 23 204 9.7 27.4 0.00 0.00 0.00 42 998.7
20260504202000 23 193 9.7 22.5 0.00 0.00 0.00 41 999.0
20260504201001 23 254 11.3 37.0 0.00 0.00 0.00 37 999.1
20260504200002 23 271 9.7 19.3 0.00 0.00 0.00 38 999.2
20260504192000 23 212 11.3 32.2 0.00 0.00 0.00 40 999.3
20260504190003 23 206 9.7 22.5 0.00 0.00 0.00 39 999.3
20260504185001 23 240 9.7 22.5 0.00 0.00 0.00 37 999.3
20260504184001 23 241 9.7 19.3 0.00 0.00 0.00 37 999.2
20260504182959 23 229 8.0 29.0 0.00 0.00 0.00 37 999.2
20260504182000 23 202 9.7 24.1 0.00 0.00 0.00 34 999.3
20260504181001 23 227 8.0 24.1 0.00 0.00 0.00 34 999.4
20260504175000 23 266 9.7 22.5 0.00 0.00 0.00 34 999.6
20260504173959 23 165 8.0 22.5 0.00 0.00 0.00 34 999.8
20260504173000 23 248 9.7 24.1 0.00 0.00 0.00 39 999.9
20260504171959 22 160 11.3 29.0 0.00 0.00 0.00 37 1000.1
20260504171001 23 205 8.0 24.1 0.00 0.00 0.00 36 1000.2